User: anonymous   Login
Location: Unspecified
(48.5670°N, 0.0000°E)
Time: 02:32:01
(UTC+00:00)
Language:

Transit 4A - Orbit

View from above orbital plane
View from above orbital plane
View from above satellite
View from above satellite

Ground track
Ground track

The orbit data is extracted from the following two-line orbital elements,

1   116U 61015A   19202.90460996 -.00000033  00000-0  33579-4 0  9996
2   116  66.8107 298.7082 0082117 243.5306 115.7333 13.91755846946164
Epoch (UTC): 21 July 2019 21:42:38
Eccentricity: 0.0082117
inclination: 66.8107°
perigee height: 862 km
apogee height: 982 km
right ascension of ascending node: 298.7082°
argument of perigee: 243.5306°
revolutions per day: 13.91755846
mean anomaly at epoch: 115.7333°
orbit number at epoch: 94616

The dashed part of the orbit path shows where the satellite is in the earth's shadow,  

DLR